Time,TemperatureF,DewpointF,PressureIn,WindDirection,WindDirectionDegrees,WindSpeedMPH,WindSpeedGustMPH,Humidity,HourlyPrecipIn,Conditions,Clouds,dailyrainin,SoftwareType,DateUTC
2013-08-22 00:01:00,74.1,68.0,29.82,SW,226,4.0,8.0,81,0.00,,,0.00,weatherlink.com 1.10,2013-08-22 04:01:00,
2013-08-22 00:16:00,74.0,68.0,29.81,WNW,292,2.0,9.0,81,0.00,,,0.00,weatherlink.com 1.10,2013-08-22 04:16:00,
2013-08-22 00:31:00,74.8,68.0,29.82,West,260,13.0,19.0,78,0.00,,,0.00,weatherlink.com 1.10,2013-08-22 04:31:00,
2013-08-22 00:46:00,74.3,68.0,29.82,West,271,5.0,11.0,80,0.00,,,0.00,weatherlink.com 1.10,2013-08-22 04:46:00,
2013-08-22 01:01:00,73.5,68.0,29.82,WNW,289,5.0,13.0,82,0.00,,,0.00,weatherlink.com 1.10,2013-08-22 05:01:00,
2013-08-22 01:16:00,73.0,68.0,29.82,WNW,288,6.0,11.0,84,0.00,,,0.00,weatherlink.com 1.10,2013-08-22 05:16:00,
2013-08-22 01:31:00,72.5,68.0,29.83,West,275,5.0,12.0,85,0.00,,,0.00,weatherlink.com 1.10,2013-08-22 05:31:00,
2013-08-22 01:46:00,72.1,68.0,29.83,NW,310,10.0,11.0,86,0.00,,,0.00,weatherlink.com 1.10,2013-08-22 05:46:00,
2013-08-22 02:01:00,71.7,68.0,29.83,West,281,14.0,14.0,87,0.00,,,0.00,weatherlink.com 1.10,2013-08-22 06:01:00,
2013-08-22 02:16:00,71.2,68.0,29.83,West,260,10.0,16.0,88,0.00,,,0.00,weatherlink.com 1.10,2013-08-22 06:16:00,
2013-08-22 02:32:00,70.8,67.0,29.83,WNW,287,4.0,12.0,88,0.00,,,0.00,weatherlink.com 1.10,2013-08-22 06:32:00,
2013-08-22 02:47:00,70.3,67.0,29.83,West,265,7.0,14.0,89,0.00,,,0.00,weatherlink.com 1.10,2013-08-22 06:47:00,
2013-08-22 03:02:00,70.4,67.0,29.84,WNW,296,7.0,15.0,88,0.00,,,0.00,weatherlink.com 1.10,2013-08-22 07:02:00,
2013-08-22 03:16:00,70.0,66.0,29.85,WNW,295,7.0,12.0,88,0.00,,,0.00,weatherlink.com 1.10,2013-08-22 07:16:00,
2013-08-22 03:31:00,69.7,66.0,29.85,WSW,258,7.0,14.0,87,0.00,,,0.00,weatherlink.com 1.10,2013-08-22 07:31:00,
2013-08-22 03:46:00,69.4,65.0,29.85,WNW,291,6.0,10.0,87,0.00,,,0.00,weatherlink.com 1.10,2013-08-22 07:46:00,
2013-08-22 04:01:00,69.3,65.0,29.85,WNW,284,6.0,13.0,87,0.00,,,0.00,weatherlink.com 1.10,2013-08-22 08:01:00,
2013-08-22 04:16:00,69.0,65.0,29.86,West,279,3.0,12.0,88,0.00,,,0.00,weatherlink.com 1.10,2013-08-22 08:16:00,
2013-08-22 04:31:00,68.6,65.0,29.86,NW,307,11.0,13.0,88,0.00,,,0.00,weatherlink.com 1.10,2013-08-22 08:31:00,
2013-08-22 04:46:00,68.0,65.0,29.86,West,275,6.0,12.0,89,0.00,,,0.00,weatherlink.com 1.10,2013-08-22 08:46:00,
2013-08-22 05:01:00,67.6,65.0,29.87,WNW,292,4.0,13.0,90,0.00,,,0.00,weatherlink.com 1.10,2013-08-22 09:01:00,
2013-08-22 05:16:00,67.0,64.0,29.88,WNW,283,4.0,11.0,90,0.00,,,0.00,weatherlink.com 1.10,2013-08-22 09:16:00,
2013-08-22 05:31:00,66.7,64.0,29.88,WNW,284,7.0,9.0,90,0.00,,,0.00,weatherlink.com 1.10,2013-08-22 09:31:00,
2013-08-22 05:46:00,66.8,64.0,29.88,WNW,300,7.0,10.0,89,0.00,,,0.00,weatherlink.com 1.10,2013-08-22 09:46:00,
2013-08-22 06:01:00,66.4,64.0,29.88,West,271,3.0,7.0,90,0.00,,,0.00,weatherlink.com 1.10,2013-08-22 10:01:00,
2013-08-22 06:16:00,66.3,63.0,29.89,WSW,251,0.0,8.0,89,0.00,,,0.00,weatherlink.com 1.10,2013-08-22 10:16:00,
2013-08-22 06:31:00,65.5,63.0,29.89,SW,221,0.0,3.0,90,0.00,,,0.00,weatherlink.com 1.10,2013-08-22 10:31:00,
2013-08-22 06:46:00,65.3,63.0,29.90,WSW,240,3.0,5.0,92,0.00,,,0.00,weatherlink.com 1.10,2013-08-22 10:46:00,
2013-08-22 08:32:00,68.1,64.0,29.93,WNW,295,4.0,8.0,86,0.00,,,0.00,weatherlink.com 1.10,2013-08-22 12:32:00,
2013-08-22 08:47:00,68.2,64.0,29.93,NW,307,6.0,8.0,85,0.00,,,0.00,weatherlink.com 1.10,2013-08-22 12:47:00,
2013-08-22 09:02:00,67.9,63.0,29.93,NW,316,6.0,10.0,85,0.00,,,0.00,weatherlink.com 1.10,2013-08-22 13:02:00,
2013-08-22 09:17:00,67.7,63.0,29.92,NW,326,5.0,6.0,86,0.00,,,0.00,weatherlink.com 1.10,2013-08-22 13:17:00,
2013-08-22 09:32:00,68.0,63.0,29.94,NNW,332,8.0,9.0,85,0.00,,,0.00,weatherlink.com 1.10,2013-08-22 13:32:00,
2013-08-22 09:47:00,68.1,63.0,29.93,NNW,332,7.0,8.0,84,0.00,,,0.00,weatherlink.com 1.10,2013-08-22 13:47:00,
2013-08-22 10:02:00,67.8,63.0,29.93,NW,325,5.0,7.0,85,0.00,,,0.00,weatherlink.com 1.10,2013-08-22 14:02:00,
2013-08-22 10:17:00,68.0,63.0,29.95,NW,317,8.0,8.0,84,0.00,,,0.00,weatherlink.com 1.10,2013-08-22 14:17:00,
2013-08-22 10:32:00,68.9,63.0,29.94,NW,321,5.0,6.0,81,0.00,,,0.00,weatherlink.com 1.10,2013-08-22 14:32:00,
2013-08-22 10:47:00,69.9,59.0,29.95,NNW,330,2.0,4.0,69,0.00,,,0.00,weatherlink.com 1.10,2013-08-22 14:47:00,
2013-08-22 11:02:00,70.4,64.0,29.96,North,360,3.0,5.0,79,0.00,,,0.00,weatherlink.com 1.10,2013-08-22 15:02:00,
2013-08-22 11:17:00,68.6,61.0,29.96,NW,306,7.0,12.0,77,0.00,,,0.00,weatherlink.com 1.10,2013-08-22 15:17:00,
2013-08-22 11:32:00,68.1,62.0,29.96,NW,325,6.0,8.0,82,0.00,,,0.00,weatherlink.com 1.10,2013-08-22 15:32:00,
2013-08-22 11:47:00,69.1,62.0,29.96,NW,319,6.0,9.0,78,0.00,,,0.00,weatherlink.com 1.10,2013-08-22 15:47:00,
2013-08-22 12:02:00,68.2,62.0,29.96,NW,323,8.0,10.0,80,0.00,,,0.00,weatherlink.com 1.10,2013-08-22 16:02:00,
2013-08-22 12:17:00,68.1,62.0,29.95,NW,321,4.0,7.0,81,0.00,,,0.00,weatherlink.com 1.10,2013-08-22 16:17:00,
2013-08-22 12:32:00,69.8,62.0,29.96,NW,313,4.0,6.0,75,0.00,,,0.00,weatherlink.com 1.10,2013-08-22 16:32:00,
2013-08-22 12:47:00,71.0,62.0,29.97,NNW,345,5.0,6.0,73,0.00,,,0.00,weatherlink.com 1.10,2013-08-22 16:47:00,
2013-08-22 13:02:00,71.6,60.0,29.98,NW,318,10.0,15.0,68,0.00,,,0.00,weatherlink.com 1.10,2013-08-22 17:02:00,
2013-08-22 13:17:00,72.5,62.0,29.97,NW,311,7.0,15.0,69,0.00,,,0.00,weatherlink.com 1.10,2013-08-22 17:17:00,
2013-08-22 13:32:00,72.3,59.0,29.97,NW,305,8.0,12.0,64,0.00,,,0.00,weatherlink.com 1.10,2013-08-22 17:32:00,
2013-08-22 13:47:00,72.2,61.0,29.97,NNW,331,8.0,11.0,67,0.00,,,0.00,weatherlink.com 1.10,2013-08-22 17:47:00,
2013-08-22 14:02:00,73.0,60.0,29.97,NW,314,7.0,12.0,65,0.00,,,0.00,weatherlink.com 1.10,2013-08-22 18:02:00,
2013-08-22 14:17:00,74.4,56.0,29.97,WNW,300,9.0,14.0,53,0.00,,,0.00,weatherlink.com 1.10,2013-08-22 18:17:00,
2013-08-22 14:32:00,75.3,53.0,29.96,WNW,296,9.0,10.0,46,0.00,,,0.00,weatherlink.com 1.10,2013-08-22 18:32:00,
2013-08-22 14:47:00,75.5,53.0,29.96,WNW,297,7.0,10.0,46,0.00,,,0.00,weatherlink.com 1.10,2013-08-22 18:47:00,
2013-08-22 15:02:00,75.7,56.0,29.96,NW,311,6.0,8.0,50,0.00,,,0.00,weatherlink.com 1.10,2013-08-22 19:02:00,
2013-08-22 15:17:00,76.0,52.0,29.96,WNW,288,7.0,9.0,44,0.00,,,0.00,weatherlink.com 1.10,2013-08-22 19:17:00,
2013-08-22 15:32:00,76.3,51.0,29.96,West,273,5.0,14.0,42,0.00,,,0.00,weatherlink.com 1.10,2013-08-22 19:32:00,
2013-08-22 15:47:00,76.7,54.0,29.96,NW,309,9.0,13.0,45,0.00,,,0.00,weatherlink.com 1.10,2013-08-22 19:47:00,
2013-08-22 16:02:00,76.8,52.0,29.96,WNW,294,6.0,14.0,42,0.00,,,0.00,weatherlink.com 1.10,2013-08-22 20:02:00,
2013-08-22 16:17:00,76.8,51.0,29.96,WNW,303,9.0,13.0,41,0.00,,,0.00,weatherlink.com 1.10,2013-08-22 20:17:00,
2013-08-22 16:32:00,77.0,53.0,29.96,WNW,302,8.0,13.0,43,0.00,,,0.00,weatherlink.com 1.10,2013-08-22 20:32:00,
2013-08-22 16:47:00,77.0,53.0,29.96,WNW,302,8.0,15.0,43,0.00,,,0.00,weatherlink.com 1.10,2013-08-22 20:47:00,
2013-08-22 17:02:00,76.8,53.0,29.95,NW,317,7.0,14.0,43,0.00,,,0.00,weatherlink.com 1.10,2013-08-22 21:02:00,
2013-08-22 17:17:00,76.4,55.0,29.95,West,281,11.0,15.0,48,0.00,,,0.00,weatherlink.com 1.10,2013-08-22 21:17:00,
2013-08-22 17:32:00,76.2,53.0,29.95,NW,326,7.0,15.0,44,0.00,,,0.00,weatherlink.com 1.10,2013-08-22 21:32:00,
2013-08-22 17:47:00,75.9,51.0,29.96,NW,307,9.0,16.0,42,0.00,,,0.00,weatherlink.com 1.10,2013-08-22 21:47:00,
2013-08-22 18:02:00,75.4,52.0,29.96,WNW,288,7.0,20.0,44,0.00,,,0.00,weatherlink.com 1.10,2013-08-22 22:02:00,
2013-08-22 18:17:00,74.9,51.0,29.96,WNW,298,10.0,19.0,44,0.00,,,0.00,weatherlink.com 1.10,2013-08-22 22:17:00,
2013-08-22 18:32:00,74.4,50.0,29.96,WNW,299,8.0,17.0,43,0.00,,,0.00,weatherlink.com 1.10,2013-08-22 22:32:00,
2013-08-22 18:47:00,74.0,51.0,29.96,WNW,285,10.0,20.0,44,0.00,,,0.00,weatherlink.com 1.10,2013-08-22 22:47:00,
2013-08-22 19:02:00,73.5,51.0,29.96,West,277,9.0,17.0,46,0.00,,,0.00,weatherlink.com 1.10,2013-08-22 23:02:00,
2013-08-22 19:17:00,73.0,51.0,29.97,WNW,282,7.0,20.0,46,0.00,,,0.00,weatherlink.com 1.10,2013-08-22 23:17:00,
2013-08-22 19:32:00,72.4,50.0,29.97,NNW,332,9.0,18.0,46,0.00,,,0.00,weatherlink.com 1.10,2013-08-22 23:32:00,
2013-08-22 19:47:00,71.7,51.0,29.97,WNW,292,13.0,17.0,49,0.00,,,0.00,weatherlink.com 1.10,2013-08-22 23:47:00,
2013-08-22 20:02:00,71.0,51.0,29.98,WNW,289,8.0,17.0,50,0.00,,,0.00,weatherlink.com 1.10,2013-08-23 00:02:00,
2013-08-22 20:17:00,70.3,52.0,29.98,West,260,16.0,19.0,52,0.00,,,0.00,weatherlink.com 1.10,2013-08-23 00:17:00,
2013-08-22 20:32:00,69.6,53.0,29.99,West,271,13.0,17.0,55,0.00,,,0.00,weatherlink.com 1.10,2013-08-23 00:32:00,
2013-08-22 20:47:00,69.3,53.0,29.99,WNW,288,9.0,22.0,56,0.00,,,0.00,weatherlink.com 1.10,2013-08-23 00:47:00,
2013-08-22 21:02:00,68.6,54.0,30.00,West,267,10.0,19.0,59,0.00,,,0.00,weatherlink.com 1.10,2013-08-23 01:02:00,
2013-08-22 21:17:00,68.0,53.0,30.00,WNW,298,11.0,14.0,60,0.00,,,0.00,weatherlink.com 1.10,2013-08-23 01:17:00,
2013-08-22 21:33:00,67.7,54.0,30.01,WNW,284,7.0,17.0,61,0.00,,,0.00,weatherlink.com 1.10,2013-08-23 01:33:00,
2013-08-22 21:48:00,67.2,54.0,30.01,West,274,8.0,16.0,63,0.00,,,0.00,weatherlink.com 1.10,2013-08-23 01:48:00,
2013-08-22 22:03:00,66.8,54.0,30.02,NW,313,6.0,14.0,63,0.00,,,0.00,weatherlink.com 1.10,2013-08-23 02:03:00,
2013-08-22 22:18:00,66.5,54.0,30.02,WNW,288,8.0,16.0,64,0.00,,,0.00,weatherlink.com 1.10,2013-08-23 02:18:00,
2013-08-22 22:33:00,66.1,54.0,30.02,West,277,11.0,16.0,65,0.00,,,0.00,weatherlink.com 1.10,2013-08-23 02:33:00,
2013-08-22 22:48:00,65.9,54.0,30.02,WNW,284,7.0,13.0,66,0.00,,,0.00,weatherlink.com 1.10,2013-08-23 02:48:00,
2013-08-22 23:03:00,65.5,55.0,30.03,WNW,288,8.0,13.0,68,0.00,,,0.00,weatherlink.com 1.10,2013-08-23 03:03:00,
2013-08-22 23:18:00,65.5,55.0,30.03,West,272,6.0,15.0,69,0.00,,,0.00,weatherlink.com 1.10,2013-08-23 03:18:00,
2013-08-22 23:33:00,64.9,55.0,30.03,West,278,9.0,14.0,71,0.00,,,0.00,weatherlink.com 1.10,2013-08-23 03:33:00,
2013-08-22 23:48:00,64.9,56.0,30.04,West,269,9.0,13.0,73,0.00,,,0.00,weatherlink.com 1.10,2013-08-23 03:48:00,